Location: Crescent
(42.8242°N, 73.7329°W)
Time: 15:30:33
(UTC+00:00)

A-11 Canister half - Pass Details

Date: 23 February 2026
Orbit: 1525 x 1683 km, 47.3° (Epoch: 9 March)

Event Time Altitude Azimuth Distance (km) Brightness Sun altitude
Rises 03:48:07 0° 292° (WNW) 4,678 12.0 -52.7°
Reaches altitude 10° 03:51:52 10° 280° (W) 3,698 11.2 -53.0°
Enters shadow 03:53:21 14° 272° (W) 3,371 10.9 -53.2°
